Tracking 28052 objects as of 22-Sep-2023
HD Live streaming from Space Station
objects crossing your sky now

ORBCOMM FM 107

Track ORBCOMM FM 107 now!
10-day predictions
ORBCOMM FM 107 is classified as:


NORAD ID: 40087
Int'l Code: 2014-040B
Perigee: 712.3 km
Apogee: 714.8 km
Inclination: 47.0 °
Period: 98.9 minutes
Semi major axis: 7084 km
RCS: Unknown
Launch date: July 14, 2014
Source: United States (US)
Launch site: AIR FORCE EASTERN TEST RANGE (AFETR)
Your satellite tracking list
Your tracking list is empty




NASA's NSSDC Master Catalog

Two Line Element Set (TLE):
1 40087U 14040B   23264.08982108  .00001125  00000-0  29130-3 0  9998
2 40087  47.0053 131.0988 0001755 244.6471 115.4232 14.55910116488524
Source of the keplerian elements: AFSPC